AO-07 1 07530U 74089B 21253.41885934 -.00000042 00000-0 25672-4 0 9991 2 07530 101.8633 227.8580 0011881 218.1758 294.7914 12.53650208142377 UO-11 1 14781U 84021B 21253.45929474 .00000168 00000-0 26552-4 0 9992 2 14781 97.5974 249.1330 0009038 152.7890 207.3800 14.83321891998532 LO-19 1 20442U 90005G 21253.53253571 .00000003 00000-0 17870-4 0 9990 2 20442 98.7491 209.8056 0010624 271.7794 88.2172 14.32996490653012 HUBBLE 1 20580U 90037B 21253.33733914 .00000818 00000-0 38463-4 0 9995 2 20580 28.4691 223.3942 0002425 254.9757 223.6379 15.09729558523838 MET-2/21 1 22782U 93055A 21253.41529927 .00000018 00000-0 27184-5 0 9991 2 22782 82.5468 236.4717 0023525 55.3751 96.5711 13.83837405415279 AO-27 1 22825U 93061C 21253.59431105 -.00000011 00000-0 13922-4 0 9993 2 22825 98.9157 273.2893 0009110 141.4301 218.7532 14.30123769458156 IO-26 1 22826U 93061D 21253.61447679 -.00000006 00000-0 15709-4 0 9999 2 22826 98.9100 273.2108 0009810 129.9559 230.2486 14.30463974458407 FO-29 1 24278U 96046B 21253.55755469 -.00000004 00000-0 35469-4 0 9993 2 24278 98.5594 310.2282 0349329 289.2237 67.1417 13.53105523237754 NOAA-15 1 25338U 98030A 21253.61531422 .00000025 00000-0 28788-4 0 9992 2 25338 98.6775 281.3570 0010985 38.3207 321.8751 14.26057122213134 GO-32 1 25397U 98043D 21253.30240255 -.00000006 00000-0 17122-4 0 9998 2 25397 98.7763 198.6444 0001362 148.2511 211.8750 14.23714941203564 ISS 1 25544U 98067A 21253.54441572 .00002318 00000-0 50853-4 0 9994 2 25544 51.6438 280.6521 0003501 17.2809 142.5012 15.48622916301822 NO-44 1 26931U 01043C 21253.60816726 -.00000028 00000-0 21147-4 0 9998 2 26931 67.0509 60.6680 0005431 267.2693 92.7786 14.30631461 41377 SO-50 1 27607U 02058C 21253.61639053 .00000047 00000-0 27202-4 0 9991 2 27607 64.5545 77.9141 0051222 355.4653 4.5977 14.75785828 7076 CO-55 1 27844U 03031E 21253.59652127 .00000063 00000-0 47817-4 0 9992 2 27844 98.6817 260.5204 0009670 185.6953 174.4117 14.22331055944080 CO-57 1 27848U 03031J 21253.47435689 .00000046 00000-0 40733-4 0 9996 2 27848 98.6872 260.9593 0009289 199.9469 160.1346 14.21905432943895 RS-22 1 27939U 03042A 21253.57233099 .00000172 00000-0 39455-4 0 9990 2 27939 98.1531 30.1282 0013146 17.7063 342.4597 14.67018810960009 NOAA-18 1 28654U 05018A 21253.51224321 .00000084 00000-0 69677-4 0 9993 2 28654 98.9870 318.6866 0014852 45.7212 314.5175 14.12636700840454 CO-58 1 28895U 05043F 21253.31630190 .00000222 00000-0 51442-4 0 9996 2 28895 98.0703 24.7549 0015582 305.7330 54.2423 14.63955059846425 Falconsat-3 1 30776U 07006E 21253.41767130 .00007049 00000-0 16385-3 0 9994 2 30776 35.4337 273.8379 0002752 300.0684 59.9771 15.41665841806223 CO-65 1 32785U 08021C 21253.15330540 .00000510 00000-0 60058-4 0 9999 2 32785 97.6194 228.7464 0014531 83.2733 277.0138 14.88792972724778 AAUSAT2 1 32788U 08021F 21253.38749367 .00001515 00000-0 14078-3 0 9994 2 32788 97.5105 244.5115 0011304 353.5409 6.5665 14.95738059726551 DO-64 1 32789U 08021G 21253.01778210 .00002333 00000-0 14977-3 0 9991 2 32789 97.3710 285.1207 0010919 203.0780 156.9960 15.09363777729588 CO-66 1 32791U 08021J 21253.16397342 .00000883 00000-0 93436-4 0 9999 2 32791 97.5785 234.5817 0014413 48.6787 311.5670 14.91509365725402 RS-30 1 32953U 08025A 21253.45949109 .00000021 00000-0 80971-4 0 9993 2 32953 82.5100 358.0634 0020234 149.7536 210.4720 12.43104471603546 PRISM 1 33493U 09002B 21253.37475215 .00001398 00000-0 12429-3 0 9992 2 33493 98.1959 220.0544 0014889 10.2656 349.8866 14.97831964687032 NOAA-19 1 33591U 09005A 21253.41269852 .00000053 00000-0 53971-4 0 9992 2 33591 99.1806 276.2099 0012990 252.9750 106.9998 14.12494085648651 SRMSAT 1 37841U 11058D 21253.03239963 .00000317 00000-0 28894-4 0 9992 2 37841 19.9714 149.8744 0011982 142.9677 339.0569 14.10703167511596 HRBE 1 37855U 11061F 21253.35463092 .00001697 00000-0 87919-4 0 9993 2 37855 101.7174 220.8323 0165509 177.9694 182.2228 15.08091727538977 RS-40 1 38735U 12041C 21253.45859568 .00000023 00000-0 93841-4 0 9991 2 38735 82.4720 80.0879 0016358 261.4853 98.4377 12.42583606413749 ZACUBE-1 1 39417U 13066B 21253.41302724 .00000390 00000-0 54827-4 0 9998 2 39417 97.6006 233.3731 0057080 242.0239 117.5191 14.81587539421652 Delfi-N3xt 1 39428U 13066N 21253.27679830 .00000698 00000-0 11678-3 0 9996 2 39428 97.7839 195.4012 0121044 92.8785 268.6281 14.68094386417413 GOMX-1 1 39430U 13066Q 21253.60386343 .00000199 00000-0 44951-4 0 9997 2 39430 97.8097 171.7790 0149482 206.3060 153.0497 14.59667920415466 LO-74 1 39440U 13066AA 21253.37960105 .00000491 00000-0 74671-4 0 9993 2 39440 97.6847 218.5710 0078863 320.9646 38.5888 14.76311101418951 AO-73 1 39444U 13066AE 21253.41226319 .00000475 00000-0 64041-4 0 9996 2 39444 97.5908 235.7509 0056232 231.6481 127.9673 14.82509831420022 SPROUT 1 39770U 14029E 21253.31023032 .00001098 00000-0 12386-3 0 9990 2 39770 97.9219 4.5497 0007699 292.6056 67.4335 14.88622817395962 DTUSAT-2 1 40030U 14033W 21253.22687829 .00000523 00000-0 61527-4 0 9990 2 40030 97.9151 180.4566 0010344 255.1245 104.8827 14.89068967391930 EO-80 1 40032U 14033Y 21252.99085164 .00000453 00000-0 54125-4 0 9997 2 40032 97.9158 180.2286 0010251 257.0302 102.9771 14.89028253391872 HODOYOSHI-1 1 40299U 14070B 21253.47620463 .00001310 00000-0 55337-4 0 9993 2 40299 97.2802 324.7389 0014249 52.2655 4.4901 15.24914970380376 FIREBIRD FU3 1 40377U 15003B 21253.25308778 .00005579 00000-0 20113-3 0 9999 2 40377 99.1110 52.3468 0115068 248.4264 110.4674 15.23037306365695 FIREBIRD FU4 1 40378U 15003C 21253.42367480 .00004988 00000-0 17994-3 0 9990 2 40378 99.1117 52.7087 0115152 247.6358 111.2638 15.23091338365721 GRIFEX 1 40379U 15003D 21253.41729431 .00003100 00000-0 12649-3 0 9995 2 40379 99.1076 41.2712 0126077 282.4073 76.3070 15.18511782365076 NO-84 1 40654U 15025D 21252.31456697 .00055176 11459-4 31571-3 0 1423 2 40654 54.9776 3.7993 0060361 291.7148 67.7579 15.76770604 20251 XW-2A 1 40903U 15049E 21253.43236494 .00004985 00000-0 10376-3 0 9999 2 40903 97.2278 307.6535 0013686 68.5973 348.0371 15.45982001335927 XW-2C 1 40906U 15049H 21253.47357194 .00001420 00000-0 75334-4 0 9994 2 40906 97.4890 254.7851 0012725 251.3682 261.7440 15.16936584330451 XW-2D 1 40907U 15049J 21253.58020988 .00001341 00000-0 70664-4 0 9998 2 40907 97.4872 254.7137 0012144 246.4281 261.9778 15.17281735330508 LILACSAT-2 1 40908U 15049K 21253.46034733 .00000823 00000-0 48176-4 0 9996 2 40908 97.5074 252.3153 0014098 266.6206 247.6401 15.14555300330094 XW-2E 1 40909U 15049L 21253.46074618 .00002169 00000-0 10423-3 0 9991 2 40909 97.4668 258.7142 0011636 229.6071 289.5653 15.19859330330847 XW-2F 1 40910U 15049M 21253.49067661 .00002144 00000-0 10449-3 0 9997 2 40910 97.4741 257.8280 0012566 230.2872 281.5456 15.19358454330635 XW-2B 1 40911U 15049N 21253.45747719 .00001448 00000-0 76173-4 0 9996 2 40911 97.4875 255.2617 0012148 248.1182 269.2989 15.17196361330378 DCBB 1 40912U 15049P 21253.47756332 .00002419 00000-0 10902-3 0 9996 2 40912 97.4450 262.1997 0013239 198.5134 318.7002 15.21939006331129 TW-1A 1 40928U 15051D 21253.57470245 .00008325 00000-0 16705-3 0 9992 2 40928 97.0728 276.4666 0008668 354.5295 162.5682 15.46889429334844 IO-86 1 40931U 15052B 21252.69813206 .00000692 00000-0 72513-5 0 9997 2 40931 6.0024 11.5130 0012564 158.2527 201.8557 14.76688015321774 ATHENOXAT-1 1 41168U 15077C 21253.55029685 .00003799 00000-0 15569-3 0 9990 2 41168 14.9905 355.1988 0010735 282.7825 183.1638 15.16074015317718 ChubuSat-2 1 41338U 16012B 21252.74783532 .00000598 00000-0 39441-4 0 9997 2 41338 31.0041 9.8613 0013674 249.6468 110.2699 15.00595565305273 ChubuSat-3 1 41339U 16012C 21253.49435869 .00000545 00000-0 35185-4 0 9991 2 41339 31.0130 2.2574 0013586 265.0254 94.8840 15.00738803305384 Horyu-4 1 41340U 16012D 21253.28658157 .00000996 00000-0 67525-4 0 9990 2 41340 31.0060 346.0841 0013803 295.7931 64.1280 15.02002722305551 e-st@r-II 1 41459U 16025D 21253.59814413 .00006181 00000-0 29725-3 0 9999 2 41459 98.1539 34.9568 0159767 135.3999 226.0230 15.08574205295254 AAUSAT4 1 41460U 16025E 21253.38195947 .00007101 00000-0 32358-3 0 9991 2 41460 98.1543 39.0463 0146077 118.5342 243.0685 15.11894704295544 LO-87 1 41557U 16033B 21253.64309310 .00002854 00000-0 10121-3 0 9991 2 41557 97.3939 347.1297 0011180 295.8341 202.2970 15.29860601294555 NuSat2 1 41558U 16033C 21253.57819510 .00003124 00000-0 10365-3 0 9993 2 41558 97.4071 351.2855 0010214 287.8993 129.5274 15.31962642294752 Lapan A3 1 41603U 16040E 21253.58800903 .00000443 00000-0 23520-4 0 9998 2 41603 97.2482 297.2536 0015039 66.3631 86.8691 15.20093600289514 Pratham 1 41783U 16059A 21253.12719841 .00000078 00000-0 24086-4 0 9999 2 41783 97.9567 300.2979 0032979 341.2264 18.7719 14.63164004264633 TY-1 1 41844U 16066D 21253.45336236 .00001746 00000-0 70512-4 0 9992 2 41844 97.3983 262.8022 0013861 191.3460 306.2262 15.26043111268862 CAS-2T 1 41847U 16066G 21253.14258657 .00000115 00000-0 28182-4 0 9996 2 41847 98.5935 312.5878 0364516 327.7358 30.1988 14.38233647254055 EO-88 1 42017U 17008BX 21253.14703023 .00003964 00000-0 14474-3 0 9998 2 42017 97.3087 319.2263 0006621 153.7102 206.4475 15.28675896254196 CAS-4B 1 42759U 17034B 21253.53457030 .00000696 00000-0 54975-4 0 9997 2 42759 43.0174 73.2892 0009379 331.6659 64.1217 15.10351539234014 CAS-4A 1 42761U 17034D 21253.52025245 .00000626 00000-0 50670-4 0 9999 2 42761 43.0180 72.3595 0009674 332.8917 61.0087 15.10439147234015 NIUSat 1 42766U 17036B 21252.68312185 .00002009 00000-0 88092-4 0 9990 2 42766 97.2430 295.7132 0013437 234.8659 125.1320 15.23029701234032 Aalto 1 1 42775U 17036L 21253.05454558 .00001557 00000-0 69183-4 0 9990 2 42775 97.2396 296.2758 0012025 232.1022 127.9128 15.22923902234075 URSA MAIOR 1 42776U 17036M 21253.37014022 .00001928 00000-0 84234-4 0 9990 2 42776 97.2411 297.0963 0011830 230.0400 129.9799 15.23215792234147 Max Valier Sat 1 42778U 17036P 21253.34583991 .00002085 00000-0 89070-4 0 9993 2 42778 97.2477 299.1531 0010357 231.0759 128.9556 15.23903576234218 Pegasus 1 42784U 17036V 21253.16901000 .00002758 00000-0 11389-3 0 9999 2 42784 97.2424 299.5073 0009872 234.6853 125.3463 15.24792586234267 NUDATSat 1 42787U 17036Y 21253.58686975 .00003920 00000-0 15080-3 0 9993 2 42787 97.2474 302.6112 0008717 226.5736 133.4777 15.26932358234322 SUCHAI 1 1 42788U 17036Z 21253.38448167 .00003352 00000-0 13434-3 0 9991 2 42788 97.2434 300.8199 0009437 229.5334 130.5083 15.25659323234438 SKCUBE 1 42789U 17036AA 21253.10122485 .00002755 00000-0 11192-3 0 9999 2 42789 97.2428 300.2155 0009314 231.6772 128.3629 15.25359014234291 VZLUSAT 1 1 42790U 17036AB 21253.38591402 .00004304 00000-0 16548-3 0 9992 2 42790 97.2459 302.4048 0008849 223.6497 136.4043 15.26897784234448 VENTA 1 1 42791U 17036AC 21253.02037601 .00002592 00000-0 10571-3 0 9997 2 42791 97.2426 300.1401 0009008 232.4296 127.6125 15.25280832234277 Robusta 1B 1 42792U 17036AD 21253.38430636 .00003302 00000-0 13252-3 0 9991 2 42792 97.2432 300.9035 0008921 230.0483 129.9972 15.25623185234379 D-SAT 1 42794U 17036AF 21253.28535954 .00000417 00000-0 41319-4 0 9991 2 42794 97.4600 268.6640 0123934 302.8436 56.0900 14.91672838229703 TechnoSat 1 42829U 17042E 21253.26453950 .00000217 00000-0 26962-4 0 9995 2 42829 97.4567 118.2448 0013036 219.3626 140.6647 14.91336906226320 QIKCOM-1 1 42983U 98067NF 21253.43215849 .00014291 00000-0 12845-3 0 9995 2 42983 51.6356 187.0932 0002041 327.6671 32.4201 15.68532461220730 AO-91 1 43017U 17073E 21253.20484637 .00001903 00000-0 15020-3 0 9994 2 43017 97.6971 153.7983 0255197 24.1377 337.1549 14.79711656205652 EcAMSat 1 43019U 98067NG 21252.98997200 .00063017 00000-0 24901-3 0 9999 2 43019 51.6371 145.0381 0000560 216.0982 143.9984 15.86181198303577 PICSAT 1 43132U 18004X 21252.90715995 .00002672 00000-0 10601-3 0 9991 2 43132 97.4039 326.6897 0007227 270.1520 89.8890 15.26229392203562 AO-92 1 43137U 18004AC 21253.15080905 .00002545 00000-0 10306-3 0 9991 2 43137 97.4008 326.3091 0007024 272.8060 87.2374 15.25583904203570 TianYi 2 1 43155U 18008A 21253.46372779 .00001317 00000-0 78647-4 0 9991 2 43155 97.3948 315.8555 0018233 39.0994 17.9114 15.12671009200921 Zhou Enlai 1 43156U 18008B 21253.41966728 .00001728 00000-0 10322-3 0 9991 2 43156 97.4006 315.6517 0015318 40.5406 14.5697 15.12298055200857 TianYi 6 1 43158U 18008D 21253.32939272 .00001054 00000-0 65485-4 0 9990 2 43158 97.3932 314.0151 0014685 40.4707 18.6891 15.11691474200764 S-Net D 1 43186U 18014G 21253.17304712 .00000350 00000-0 35255-4 0 9996 2 43186 97.6699 159.2093 0011500 149.4901 210.6992 14.97134729196972 S-Net B 1 43187U 18014H 21253.03932550 .00000320 00000-0 32663-4 0 9996 2 43187 97.6697 159.0414 0011497 149.8108 210.3779 14.97133766196952 S-Net A 1 43188U 18014J 21253.03944087 .00000322 00000-0 32825-4 0 9997 2 43188 97.6700 159.0901 0011492 149.8920 210.2965 14.97132609196957 S-Net C 1 43189U 18014K 21253.17360478 .00000292 00000-0 30279-4 0 9996 2 43189 97.6695 159.1650 0011478 149.4584 210.7309 14.97132653195527 FMN 1 1 43192U 18015A 21253.45360078 .00005132 00000-0 18607-3 0 9996 2 43192 97.4995 29.3348 0013156 305.9073 125.9259 15.28733584200579 Shaonian Xing 1 43199U 18015H 21253.44639366 .00003508 00000-0 13079-3 0 9994 2 43199 97.4775 26.1602 0014606 316.4422 117.7827 15.28019794200622 SurfSat 1 43614U 18070B 21253.00627085 .00007294 00000-0 16465-3 0 9992 2 43614 93.0354 341.2615 0015333 44.2641 315.9839 15.43099534167704 CP-7 DAVE 1 43615U 18070C 21253.23504748 .00007138 00000-0 16290-3 0 9991 2 43615 93.0357 341.3018 0015516 43.3884 316.8590 15.42772406167729 ELFIN-B 1 43616U 18070D 21252.82444190 .00011627 00000-0 23552-3 0 9997 2 43616 93.0312 341.4333 0014823 41.7003 318.5382 15.46274790167801 ELFIN-A 1 43617U 18070E 21253.20896813 .00012668 00000-0 25173-3 0 9991 2 43617 93.0359 342.5249 0013999 37.7700 322.4538 15.46842302167888 CubeBel-1 1 43666U 18083E 21253.66339184 .00002057 00000-0 99501-4 0 9990 2 43666 97.4510 280.9549 0012971 227.6362 253.1591 15.19657752158950 Changshagaoxin 1 43669U 18083H 21253.65674516 .00004352 00000-0 21455-3 0 9995 2 43669 97.4427 277.7601 0009128 222.4779 256.5118 15.18427782158812 Ten-Koh 1 43677U 18084G 21253.31162854 .00000310 00000-0 37559-4 0 9998 2 43677 97.9301 16.6165 0017321 113.3550 246.9491 14.90517987155945 PO-101 1 43678U 18084H 21253.57266428 .00000039 00000-0 96001-5 0 9995 2 43678 97.9342 19.3424 0010952 125.1689 235.0603 14.91783053156121 IRVINE 01 1 43693U 18088D 21253.14641822 .00006724 00000-0 25571-3 0 9993 2 43693 85.0343 138.6509 0018535 73.2326 287.0950 15.26405283157355 QO-100 1 43700U 18090A 21252.68613374 .00000138 00000-0 00000-0 0 9994 2 43700 0.0125 221.1934 0002090 333.7795 66.7972 1.00272395 10214 Reaktor Hello World 1 43743U 18096AA 21253.46164234 .00003182 00000-0 11456-3 0 9992 2 43743 97.3809 330.3257 0016225 340.6311 19.4310 15.29207308155125 MinXSS-2 1 43758U 18099A 21253.24181388 .00000299 00000-0 31526-4 0 9993 2 43758 97.6606 322.6551 0016688 122.3480 237.9360 14.96167001151198 AO-95 1 43770U 18099N 21253.43148066 .00000312 00000-0 33328-4 0 9992 2 43770 97.6586 321.7180 0015646 129.8670 230.3930 14.95418527151150 RANGE-B 1 43772U 18099Q 21253.44206869 .00000433 00000-0 43917-4 0 9990 2 43772 97.6676 322.8587 0015348 118.0846 242.1929 14.95744390151169 RANGE-A 1 43773U 18099R 21253.17611114 .00000115 00000-0 15597-4 0 9994 2 43773 97.6517 320.7050 0014785 118.9859 241.2846 14.95283432151100 MOVE-II 1 43780U 18099Y 21253.42396508 .00001175 00000-0 10947-3 0 9997 2 43780 97.6610 322.3476 0014738 126.2217 234.0370 14.96080186151171 SNUSat 2 1 43782U 18099AA 21252.98238453 .00000269 00000-0 29241-4 0 9994 2 43782 97.6583 321.6499 0013988 118.5239 241.7392 14.95649008151108 SnugLite 1 43784U 18099AC 21253.18413713 .00000470 00000-0 47180-4 0 9999 2 43784 97.6546 321.5519 0016220 125.3777 234.8963 14.95783195151154 ITASat 1 1 43786U 18099AE 21252.73226980 .00000821 00000-0 78702-4 0 9993 2 43786 97.6605 321.7716 0016445 126.2167 234.0577 14.95696473151082 EAGLET 1 1 43790U 18099AJ 21253.41598177 .00000882 00000-0 83521-4 0 9996 2 43790 97.6598 322.8860 0014851 126.2860 233.9736 14.96045246150912 ESEO 1 43792U 18099AL 21253.14727678 .00000707 00000-0 68335-4 0 9990 2 43792 97.6562 322.1460 0014677 124.7069 235.5537 14.95781939150927 CSIM 1 43793U 18099AM 21253.18777702 .00000909 00000-0 84431-4 0 9997 2 43793 97.6593 322.7254 0014164 121.9745 238.2856 14.96739332150947 Astrocast 0.1 1 43798U 18099AS 21252.81757920 .00001032 00000-0 96247-4 0 9997 2 43798 97.6607 322.5324 0013984 109.8192 250.4538 14.96286755151135 JO-97 1 43803U 18099AX 21253.01617160 .00001024 00000-0 96274-4 0 9999 2 43803 97.6571 321.7922 0016495 124.4993 235.7789 14.95965549151137 Suomi 100 1 43804U 18099AY 21253.42476566 .00000638 00000-0 61971-4 0 9994 2 43804 97.6567 322.1511 0016488 123.2461 237.0343 14.95933513151206 Al Farabi 2 1 43805U 18099AZ 21253.34586344 .00001354 00000-0 12499-3 0 9998 2 43805 97.6574 322.3410 0016709 124.4300 235.8496 14.96174585151208 CHOMPTT 1 43855U 18104G 21253.41229744 .00002256 00000-0 90479-4 0 9993 2 43855 85.0351 237.1729 0016587 184.2404 175.8702 15.24255919152034 ISAT 1 43879U 18111D 21253.56977876 .00001380 00000-0 12562-3 0 9992 2 43879 97.6769 159.2975 0012979 170.3047 189.8431 14.96746993145782 UWE-4 1 43880U 18111E 21252.74238872 .00000776 00000-0 72446-4 0 9995 2 43880 97.6782 159.0112 0012240 175.0953 185.0391 14.96966816147692 Sparrow 1 43881U 18111F 21253.17770959 .00000389 00000-0 38781-4 0 9995 2 43881 97.6803 159.5881 0012203 169.9058 190.2412 14.97035241147762 Lume 1 1 43908U 18111AJ 21253.35549406 .00002871 00000-0 11191-3 0 9999 2 43908 97.2213 145.3179 0020090 355.7966 4.3101 15.26567236150628 FO-98 1 43933U 19003B 21252.57985859 .00020108 00000-0 70773-3 0 9991 2 43933 97.1768 290.9343 0017141 95.6909 264.6287 15.29213705146959 FO-99 1 43937U 19003F 21252.65238703 .00003019 00000-0 11862-3 0 9999 2 43937 97.1694 292.4479 0024687 75.3258 285.0715 15.26143624147103 MYSat 1 1 44045U 18092F 21252.74413896 .00010069 00000-0 24987-3 0 9990 2 44045 51.6390 14.5716 0009986 151.3275 208.8261 15.40937324144456 AstroCast 0.2 1 44083U 19018F 21253.47270808 .00002628 00000-0 11479-3 0 9990 2 44083 97.3648 312.9430 0013681 40.3226 319.9023 15.22912091135835 AISTechSat 3 1 44103U 19018AB 21253.63127317 .00001882 00000-0 79633-4 0 9995 2 44103 97.3529 313.5230 0014327 48.8372 104.7989 15.24335366135987 AISat 1 1 44104U 19018AC 21253.30709503 .00002368 00000-0 74514-4 0 9996 2 44104 97.4206 330.7971 0057565 54.3703 306.2881 15.32368250136668 Raavana-1 1 44329U 98067QE 21253.26357021 .00251885 35835-4 64340-3 0 9998 2 44329 51.6296 202.9719 0002629 133.2379 226.8848 15.94881785127600 Uguisu 1 44330U 98067QF 21253.25235980 .00213486 28342-4 61060-3 0 9994 2 44330 51.6253 204.2687 0002402 132.1407 227.9804 15.92798940127560 NepaliSat-1 1 44331U 98067QG 21253.33221032 .00239816 33384-4 62624-3 0 9991 2 44331 51.6265 202.5599 0002614 132.8815 227.2413 15.94482828127603 Prox-1 1 44339U 19036A 21253.14858692 .00001395 00000-0 27708-3 0 9993 2 44339 23.9995 160.7304 0010463 29.4520 330.6559 14.53726553117505 Oculus-ASR 1 44348U 19036K 21253.47764545 .00013999 00000-0 18180-3 0 9999 2 44348 28.5101 287.0402 0320851 109.0044 254.5592 15.14640691121803 Armadillo 1 44352U 19036P 21253.37687554 .00022126 00000-0 26273-3 0 9991 2 44352 28.5261 259.4380 0284517 151.7876 209.8453 15.23758773122023 NO-104 1 44354U 19036R 21253.41799117 .00014751 00000-0 18700-3 0 9998 2 44354 28.5258 279.3654 0315309 119.1899 244.0617 15.16257552121879 NO-103 1 44355U 19036S 21253.23699078 .00034843 -60510-5 33381-3 0 9998 2 44355 28.5259 220.2210 0241597 215.5529 142.8752 15.35568848122456 CP9 1 44360U 19036X 21252.98485839 .00194193 39288-5 86298-3 0 9990 2 44360 28.4972 130.4356 0131391 3.3568 356.7898 15.70974980123187 Move-IIb 1 44398U 19038N 21253.57851240 .00002989 00000-0 16704-3 0 9993 2 44398 97.5915 217.2572 0025218 19.6027 340.6168 15.14029651120640 SONATE 1 44400U 19038Q 21253.58480057 .00001085 00000-0 65342-4 0 9991 2 44400 97.5974 217.0629 0025746 19.9510 340.2721 15.12708348120608 BeeSat 9 1 44412U 19038AC 21253.36559860 .00002528 00000-0 14395-3 0 9993 2 44412 97.5963 217.1880 0022837 25.8320 334.4046 15.13546191120299 JAISAT-1 1 44419U 19038F 21253.44036026 .00002707 00000-0 15191-3 0 9997 2 44419 97.5968 217.8773 0021627 23.8642 336.3587 15.14032207120650 LightSail-2 1 44420U 19036AC 21253.05557927 .00007656 00000-0 15089-2 0 9995 2 44420 24.0043 135.1296 0007656 79.6009 280.5346 14.60289314115879 Taurus 1 1 44530U 19059C 21253.55407518 .00000578 00000-0 17414-3 0 9998 2 44530 98.5515 344.6275 0012683 240.9360 119.0571 14.46171626105385 Duchifat 3 1 44854U 19089C 21253.49120537 .00000756 00000-0 66601-4 0 9997 2 44854 36.9684 317.6990 0007088 100.9996 259.1552 14.99613108 95875 OPS-SAT 1 44878U 19092F 21253.43249776 .00001755 00000-0 92734-4 0 9994 2 44878 97.4779 75.7129 0012400 231.3083 128.7042 15.16755345 95712 TO-108 1 44881U 19093C 21253.50247590 .00000079 00000-0 16842-4 0 9993 2 44881 97.9205 331.3899 0015766 21.3625 338.8243 14.81477893 93329 FloripaSat 1 1 44885U 19093G 21253.47361887 .00000375 00000-0 53445-4 0 9998 2 44885 97.9224 332.0756 0015320 29.3939 330.8134 14.82370287 93361 RS-44 1 44909U 19096E 21253.45447584 .00000010 00000-0 38431-5 0 9990 2 44909 82.5198 56.3199 0216443 254.3054 103.4076 12.79710866 79696 SwampSat-2 1 45115U 19071E 21253.38573218 .00148938 00000-0 13520-2 0 9990 2 45115 51.6306 309.2472 0007198 338.1521 21.9167 15.66977934 90691 HO-107 1 45119U 19071J 21253.25219333 .00005344 00000-0 15848-3 0 9994 2 45119 51.6430 345.5319 0010609 236.5416 123.4553 15.36440166 90204 Phoenix 1 45258U 98067RB 21253.18832230 .00013482 00000-0 17918-3 0 9991 2 45258 51.6373 264.3487 0003991 202.7508 157.3308 15.58523511 88415 AztechSat-1 1 45261U 98067RE 21253.41120391 .00065310 00000-0 48414-3 0 9991 2 45261 51.6331 245.5056 0001248 228.7553 131.3338 15.72268877 88712 QARMAN 1 45263U 98067RG 21253.33338084 .00038686 00000-0 37394-3 0 9995 2 45263 51.6360 254.0549 0002612 224.0654 136.0134 15.66041440 88629 Quetzal 1 1 45598U 98067RL 21253.43495744 .00032227 00000-0 34700-3 0 9997 2 45598 51.6374 259.2734 0002243 13.5146 346.5908 15.63403338 77838 BY70-2 1 45857U 20042B 21253.58990134 .00001309 00000-0 19183-3 0 9997 2 45857 97.9814 328.4530 0009448 302.8450 57.1853 14.77258666 64114 UPMSat 2 1 46276U 20061E 21253.13842509 .00001008 00000-0 54957-4 0 9992 2 46276 97.4264 325.1959 0003016 80.8954 279.2620 15.16606391 56374 AmicalSat 1 46287U 20061R 21252.70188514 .00001238 00000-0 78658-4 0 9994 2 46287 97.4819 324.1064 0003541 140.8764 219.2722 15.10650901 56060 SALSAT 1 46495U 20068K 21253.58245944 .00000434 00000-0 36299-4 0 9992 2 46495 97.6937 190.5904 0016994 140.7613 219.4873 15.03528295 52124 BY70-3 1 46839U 20079N 21253.50418006 .00004788 00000-0 14646-3 0 9996 2 46839 97.2353 325.6803 0005376 255.7823 161.2950 15.34305843 47248 SPOC 1 46921U 98067RR 21253.27757285 .00013705 00000-0 19855-3 0 9995 2 46921 51.6402 272.5080 0002953 42.5594 317.5626 15.56175281 48063 Bobcat-1 1 46922U 98067RS 21253.43308849 .00021731 00000-0 28126-3 0 9991 2 46922 51.6405 269.0753 0003098 47.3184 312.8069 15.58833992 48087 Neutron-1 1 46923U 98067RT 21252.97896476 .00012754 00000-0 18620-3 0 9991 2 46923 51.6401 274.2601 0002944 51.1613 308.9641 15.56038727 48042 CAPE 3 1 47309U 21002A 21253.25267838 .00002195 00000-0 10761-3 0 9997 2 47309 60.6843 334.8504 0045478 93.3059 267.3231 15.21099224 35788 AO-109 1 47311U 21002C 21253.24600861 .00002077 00000-0 10043-3 0 9998 2 47311 60.6865 333.7111 0041633 91.0872 269.4985 15.21960175 35774 MiTEE 1 1 47314U 21002F 21253.22950466 .00004224 00000-0 18209-3 0 9996 2 47314 60.6858 331.8688 0042363 83.5406 277.0502 15.23668047 35828 ExoCube 2 1 47319U 21002L 21253.23733849 .00002464 00000-0 11792-3 0 9990 2 47319 60.6857 334.2059 0043264 92.4291 268.1750 15.21587356 35730 UVSQ-SAT 1 47438U 21006AB 21253.41882145 .00001540 00000-0 89900-4 0 9991 2 47438 97.4798 313.0978 0013287 158.2973 201.8824 15.13341483 34903 YUSAT 1 1 47439U 21006AC 21253.15618283 .00001830 00000-0 10606-3 0 9991 2 47439 97.4802 312.8424 0013144 159.4606 200.7157 15.13365033 34860 SOMP 2b 1 47445U 21006AJ 21253.11175761 .00001423 00000-0 83755-4 0 9997 2 47445 97.4771 312.6575 0012794 162.6949 197.4721 15.13170359 34856 IDEASSat 1 47458U 21006AX 21252.80163747 .00001291 00000-0 76658-4 0 9994 2 47458 97.4863 312.5820 0011929 161.2954 198.8718 15.13031829 34808 RSP-01 1 47925U 98067SB 21252.50181175 .00015273 00000-0 24342-3 0 9993 2 47925 51.6410 282.3082 0002734 9.9323 350.1721 15.53443742 27830 TAUSAT-1 1 47926U 98067SC 21253.07653407 .00017217 00000-0 26406-3 0 9992 2 47926 51.6397 278.6413 0003876 5.8199 354.2836 15.54404652 27925 Tsuru 1 47927U 98067SD 21253.09869695 .00012213 00000-0 19849-3 0 9997 2 47927 51.6412 279.5442 0002723 9.8318 350.2725 15.53119206 27923 STARS-EC 1 47928U 98067SE 21253.26118535 .00018871 00000-0 29215-3 0 9991 2 47928 51.6407 278.3709 0006404 61.0353 299.1279 15.54063512 27935 Maya-2 1 47929U 98067SF 21253.28823752 .00013129 00000-0 21256-3 0 9996 2 47929 51.6411 278.5594 0002736 7.7806 352.3227 15.53151153 27910 OPUSAT-II 1 47930U 98067SG 21252.57852641 .00021057 00000-0 31919-3 0 9994 2 47930 51.6407 281.3228 0002897 5.6436 354.4587 15.54580194 27854 GuaraniSat-1 1 47931U 98067SH 21253.09356507 .00012961 00000-0 20985-3 0 9998 2 47931 51.6411 279.5114 0002732 6.2108 353.8916 15.53163760 27926 CubeSX-Sirius-HSE 1 47951U 21022V 21253.52914413 .00000946 00000-0 69182-4 0 9994 2 47951 97.5499 153.9500 0023202 25.5529 97.4715 15.05802190 25855 CubeSX-HSE 1 47952U 21022W 21253.52493319 .00000841 00000-0 61862-4 0 9993 2 47952 97.5493 153.9511 0023108 25.2082 99.1814 15.05840938 25859 KSU-Cubesat 1 47954U 21022Y 21252.96136539 .00000784 00000-0 57876-4 0 9996 2 47954 97.5494 153.4270 0022476 26.7366 333.5015 15.05926660 25492 GRBAlpha 1 47959U 21022AD 21253.52530270 .00000857 00000-0 63004-4 0 9995 2 47959 97.5503 153.9644 0023026 25.6870 99.4127 15.05841753 24678 Orbicraft-Zorkiy 1 47960U 21022AE 21253.44927351 .00000652 00000-0 48875-4 0 9990 2 47960 97.5506 153.9338 0022765 25.5239 89.1048 15.05909795 25355 STECCO 1 47962U 21022AG 21253.65391353 .00001698 00000-0 11715-3 0 9995 2 47962 97.5486 154.3253 0017677 22.5323 38.8794 15.07012666 24703 DO-111 1 47963U 21022AH 21253.19413335 .00003919 00000-0 25991-3 0 9999 2 47963 97.5494 154.0129 0020441 20.4236 339.7804 15.07679672 24661 MO-110 1 47964U 21022AJ 21253.14790960 .00002067 00000-0 14057-3 0 9991 2 47964 97.5484 153.9120 0020481 20.3922 339.8119 15.07282711 24636 FEES 1 48082U 21022AL 21253.19908316 .00002761 00000-0 18858-3 0 9998 2 48082 97.5495 153.8695 0016747 18.5989 341.5847 15.06893101 24344 RamSat 1 48850U 98067SL 21253.24267710 .00009115 00000-0 16252-3 0 9992 2 48850 51.6411 281.2284 0004865 87.4522 272.7024 15.50860941 13662 MO-112 1 48868U 98067SP 21253.23066167 .00019561 00000-0 32831-3 0 9990 2 48868 51.6407 281.1499 0003685 74.3208 285.8188 15.51796187 12440 TUBIN 1 48900U 21059X 21253.46313741 .00000721 00000-0 45396-4 0 9991 2 48900 97.5194 21.1139 0010450 357.2223 70.9962 15.12266031 11584 /EX